Location: Buena Vista Beach
(41.8098°N, 81.1279°W)
Time: 17:45:41
(UTC+00:00)

Okean-O - Pass Details

Date: 29 October 2020
Orbit: 638 x 641 km, 98.2° (Epoch: 28 November)

Event Time Altitude Azimuth Distance (km) Brightness Sun altitude
Rises 22:51:45 0° 129° (SE) 2,936 5.7 -6.2°
Reaches altitude 10° 22:54:24 10° 112° (ESE) 2,032 4.7 -6.7°
Maximum altitude 22:57:37 20° 65° (ENE) 1,475 3.9 -7.3°
Drops below altitude 10° 23:00:52 10° 18° (NNE) 2,041 4.9 -7.8°
Sets 23:03:32 0° 2° (N) 2,955 5.9 -8.3°
